Regional Weather Roundup
Issued by NWS

Home | Current Version | Previous Version | Text Only | Print | Product List | Glossary Off
Versions: 1 2 3 4 5 6 7 8 9 10 11 12 13 14 15 16 17 18 19 20 21 22 23 24 25 26 27 28 29 30 31 32 33 34 35 36 37 38 39 40 41 42 43 44 45 46 47 48 49 50

000
ASUS43 KDTX 311501
RWRMI
MICHIGAN HOURLY REGIONAL WEATHER ROUNDUP
NATIONAL WEATHER SERVICE DETROIT/PONTIAC MI
1100 AM EDT THU JUL 31 2014

NOTE: "FAIR" INDICATES FEW OR NO CLOUDS BELOW 12,000 FEET WITH NO
SIGNIFICANT WEATHER AND/OR OBSTRUCTION TO VISIBILITY.

MIZ047>049-052>055-059>063-066>070-074>076-081>083-311600-
SOUTHEAST LOWER MICHIGAN

CITY           SKY/WX    TMP DP  RH WIND       PRES   REMARKS
ADRIAN         SUNNY     72  54  53 W9        30.06R
ALMA           SUNNY     70  58  66 W10       30.01S
ANN ARBOR      SUNNY     72  55  55 SW9       30.04S
BAD AXE        PTSUNNY   67  55  64 SW10      29.99F
CARO           SUNNY     69  58  67 SW10      29.99F
DETROIT CITY   MOSUNNY   71  52  50 W5        30.03F
DETROIT        PTSUNNY   70  56  61 SW9       30.04S
FLINT          SUNNY     70  55  59 SW10      30.01F
GROSSE ILE     SUNNY     72  57  60 W5        30.03S
HILLSDALE      MOSUNNY   72  56  57 W7        30.06R
HOWELL         SUNNY     70  57  63 W8        30.03S

CITY           SKY/WX    TMP DP  RH WIND       PRES   REMARKS
JACKSON        PTSUNNY   71  56  58 SW12      30.04S
LAMBERTVILLE   SUNNY     72  54  53 SW7       30.05S
LANSING        SUNNY     70  56  61 W12       30.02S
LAPEER         FAIR      68  53  57 SW7       30.02S
MASON          PTSUNNY   70  57  64 SW5       30.03S
MONROE         SUNNY     72  55  56 W6        30.03S
MT. CLEMENS    MOSUNNY   69  53  55 SW6       30.02R
PONTIAC        MOSUNNY   69  53  56 W9        30.03S
PORT HOPE        N/A     67  54  63 SW8G17    29.97S
PORT HURON     PTSUNNY   68  54  60 SW3       30.02S
TRI CITIES     SUNNY     69  57  65 W8        30.00S
TROY           SUNNY     70  52  52 W8        30.04S
SAGINAW HB     SUNNY     70  55  60 SW7       29.99S
$$
MIZ043>046-050>051-056>058-064>065-071>073-077>080-311600-
SOUTHWEST LOWER MICHIGAN

CITY           SKY/WX    TMP DP  RH WIND       PRES   REMARKS
BATTLE CREEK   MOSUNNY   71  58  63 SW12      30.04S
BENTON HARBOR  MOSUNNY   73  57  57 W12       30.04R
BIG RAPIDS     SUNNY     68  57  67 SW3       30.00S
COLDWATER      MOSUNNY   73  59  62 SW9       30.05R
FREMONT        FAIR      70  58  67 W3        30.00S
HOLLAND        SUNNY     70  61  73 W12       30.02S
GRAND RAPIDS   MOSUNNY   73  61  65 SW13      30.01F
IONIA          FAIR      70  59  67 W9        30.01S
KALAMAZOO      MOSUNNY   73  59  61 SW10      30.04S
LUDINGTON      SUNNY     65  59  80 SW7       30.01R
MARSHALL       PTSUNNY   69  59  69 W9        30.04R
MOUNT PLEASANT SUNNY     69  58  69 W6        29.99S
MUSKEGON       SUNNY     69  58  67 W6        30.01S
SOUTH HAVEN    SUNNY     70  62  75 W13G18    30.03S
$$
MIZ016>042-311600-
NORTHERN LOWER MICHIGAN

CITY           SKY/WX    TMP DP  RH WIND       PRES   REMARKS
ALPENA         SUNNY     66  54  65 SW8       29.96
BEAVER ISLAND  SUNNY     65  60  83 SW10      29.95S
BELLAIRE       SUNNY     67  56  66 S5        29.96S
CADILLAC       SUNNY     66  55  68 S3        29.99S
CHARLEVOIX     SUNNY     70  57  63 W9        29.98S
FRANKFORT      SUNNY     67  56  68 W8        29.99R
GAYLORD        SUNNY     66  52  60 W10       29.97S
GRAYLING       SUNNY     69  53  56 NW7       29.99R
HARBOR SPRINGS MOSUNNY   65  58  77 SW5       29.96S
HOUGHTON LAKE  SUNNY     65  55  70 W6        29.99R
MANISTEE       SUNNY     66  55  68 CALM      30.00S
OSCODA         MOSUNNY   68  54  59 SW7       29.95S
PELLSTON       MOSUNNY   68  56  65 VRB7      29.95S
ROGERS CITY    SUNNY     67  57  71 W6        29.96S
TRAVERSE CITY  MOSUNNY   69  53  56 S3        29.96R
$$
MIZ007>008-015-311600-
EASTERN UPPER MICHIGAN

CITY           SKY/WX    TMP DP  RH WIND       PRES   REMARKS
KINROSS        PTSUNNY   66  55  68 W7        29.92S
MACKINAC ISLAN PTSUNNY   63  59  85 SW8       29.93S
NEWBERRY       SUNNY     66  54  65 SW7G20    29.92S
S. S. MARIE    CLOUDY    63  52  67 W6        29.91S
MUNISING         N/A     66  57  72 N9        29.92R
$$
MIZ004>006-011>014-085-311600-
CENTRAL UPPER MICHIGAN

CITY           SKY/WX    TMP DP  RH WIND       PRES   REMARKS
MANISTIQUE     SUNNY     65  57  76 S5        29.93S
ESCANABA       PTSUNNY   66  55  68 CALM      29.95S
MENOMINEE      SUNNY     66  61  82 SW6       29.96S
$$
MIZ001>003-009>011-084-311600-
WESTERN UPPER MICHIGAN

CITY           SKY/WX    TMP DP  RH WIND       PRES   REMARKS
IRON MOUNTAIN  SUNNY     69  57  65 W6        29.96S
HOUGHTON       SUNNY     66  55  67 W12       29.93S
COPPER HARBOR    N/A     64  57  78 N10       29.91S
$$

ABBREVIATIONS USED IN REMARKS
   TC - TEMPERATURE IN CELSIUS
  WCI - WIND CHILL INDEX
   HX - HEAT INDEX
  VSB - VISIBILITY



USA.gov is the U.S. government's official web portal to all federal, state and local government web resources and services.